Time,TemperatureF,DewpointF,PressureIn,WindDirection,WindDirectionDegrees,WindSpeedMPH,WindSpeedGustMPH,Humidity,HourlyPrecipIn,Conditions,Clouds,dailyrainin,SoftwareType,DateUTC
2013-12-26 00:02:00,20.1,17.4,30.23,ESE,112,2.0,6.0,89,0.00,,,0.00,Weather View 32 v70,2013-12-26 06:02:00,
2013-12-26 00:07:00,20.1,17.4,30.23,ESE,112,3.0,6.0,89,0.00,,,0.00,Weather View 32 v70,2013-12-26 06:07:00,
2013-12-26 00:12:00,19.9,17.2,30.23,ESE,112,2.0,6.0,89,0.00,,,0.00,Weather View 32 v70,2013-12-26 06:12:00,
2013-12-26 00:17:00,19.9,17.2,30.22,SE,135,2.0,6.0,89,0.00,,,0.00,Weather View 32 v70,2013-12-26 06:17:00,
2013-12-26 00:22:00,20.0,17.3,30.22,ESE,112,3.0,6.0,89,0.00,,,0.00,Weather View 32 v70,2013-12-26 06:22:00,
2013-12-26 00:27:00,19.9,17.2,30.22,ESE,112,3.0,6.0,89,0.00,,,0.00,Weather View 32 v70,2013-12-26 06:27:00,
2013-12-26 00:32:00,19.9,17.4,30.22,ESE,112,4.0,6.0,90,0.00,,,0.00,Weather View 32 v70,2013-12-26 06:32:00,
2013-12-26 00:37:00,20.0,17.3,30.22,SE,135,2.0,6.0,89,0.00,,,0.00,Weather View 32 v70,2013-12-26 06:37:00,
2013-12-26 00:42:00,20.2,17.5,30.22,SE,135,4.0,6.0,89,0.00,,,0.00,Weather View 32 v70,2013-12-26 06:42:00,
2013-12-26 00:47:00,20.5,17.8,30.22,ESE,112,2.0,6.0,89,0.00,,,0.00,Weather View 32 v70,2013-12-26 06:47:00,
2013-12-26 00:52:00,20.8,18.1,30.21,ESE,112,4.0,6.0,89,0.00,,,0.00,Weather View 32 v70,2013-12-26 06:52:00,
2013-12-26 00:57:00,21.1,18.1,30.21,ESE,112,4.0,6.0,88,0.00,,,0.00,Weather View 32 v70,2013-12-26 06:57:00,
2013-12-26 01:02:00,21.3,18.0,30.20,ESE,112,3.0,6.0,87,0.00,,,0.00,Weather View 32 v70,2013-12-26 07:02:00,
2013-12-26 01:07:00,21.5,18.2,30.20,ESE,112,3.0,6.0,87,0.00,,,0.00,Weather View 32 v70,2013-12-26 07:07:00,
2013-12-26 01:12:00,21.8,18.5,30.19,ESE,112,3.0,6.0,87,0.00,,,0.00,Weather View 32 v70,2013-12-26 07:12:00,
2013-12-26 01:17:00,21.9,18.6,30.19,ESE,112,3.0,6.0,87,0.00,,,0.00,Weather View 32 v70,2013-12-26 07:17:00,
2013-12-26 01:22:00,22.1,18.6,30.19,ESE,112,2.0,6.0,86,0.00,,,0.00,Weather View 32 v70,2013-12-26 07:22:00,
2013-12-26 01:27:00,22.3,18.8,30.18,ESE,112,3.0,6.0,86,0.00,,,0.00,Weather View 32 v70,2013-12-26 07:27:00,
2013-12-26 01:32:00,22.2,18.4,30.18,East,90,3.0,6.0,85,0.00,,,0.00,Weather View 32 v70,2013-12-26 07:32:00,
2013-12-26 01:37:00,22.2,18.7,30.18,East,90,4.0,6.0,86,0.00,,,0.00,Weather View 32 v70,2013-12-26 07:37:00,
2013-12-26 01:42:00,22.2,18.7,30.18,ESE,112,2.0,6.0,86,0.00,,,0.00,Weather View 32 v70,2013-12-26 07:42:00,
2013-12-26 01:47:00,22.2,18.7,30.18,ESE,112,2.0,6.0,86,0.00,,,0.00,Weather View 32 v70,2013-12-26 07:47:00,
2013-12-26 01:52:00,22.2,18.7,30.18,ESE,112,2.0,6.0,86,0.00,,,0.00,Weather View 32 v70,2013-12-26 07:52:00,
2013-12-26 01:57:00,22.1,18.3,30.18,East,90,2.0,6.0,85,0.00,,,0.00,Weather View 32 v70,2013-12-26 07:57:00,
2013-12-26 02:02:00,22.1,18.6,30.17,East,90,3.0,6.0,86,0.00,,,0.00,Weather View 32 v70,2013-12-26 08:02:00,
2013-12-26 02:07:00,22.3,18.5,30.17,ESE,112,2.0,6.0,85,0.00,,,0.00,Weather View 32 v70,2013-12-26 08:07:00,
2013-12-26 02:12:00,22.9,19.1,30.18,SE,135,4.0,5.0,85,0.00,,,0.00,Weather View 32 v70,2013-12-26 08:12:00,
2013-12-26 02:17:00,23.5,19.1,30.17,ESE,112,3.0,5.0,83,0.00,,,0.00,Weather View 32 v70,2013-12-26 08:17:00,
2013-12-26 02:22:00,23.7,19.0,30.17,ESE,112,4.0,6.0,82,0.00,,,0.00,Weather View 32 v70,2013-12-26 08:22:00,
2013-12-26 02:27:00,23.6,18.9,30.17,ESE,112,4.0,6.0,82,0.00,,,0.00,Weather View 32 v70,2013-12-26 08:27:00,
2013-12-26 02:32:00,23.6,18.9,30.17,ESE,112,4.0,7.0,82,0.00,,,0.00,Weather View 32 v70,2013-12-26 08:32:00,
2013-12-26 02:37:00,23.7,19.0,30.17,ESE,112,2.0,7.0,82,0.00,,,0.00,Weather View 32 v70,2013-12-26 08:37:00,
2013-12-26 02:42:00,23.9,19.2,30.18,SE,135,2.0,7.0,82,0.00,,,0.00,Weather View 32 v70,2013-12-26 08:42:00,
2013-12-26 02:47:00,23.9,19.2,30.18,SE,135,4.0,7.0,82,0.00,,,0.00,Weather View 32 v70,2013-12-26 08:47:00,
2013-12-26 02:52:00,24.1,19.1,30.17,SE,135,1.0,7.0,81,0.00,,,0.00,Weather View 32 v70,2013-12-26 08:52:00,
2013-12-26 02:57:00,24.2,18.9,30.17,ESE,112,4.0,7.0,80,0.00,,,0.00,Weather View 32 v70,2013-12-26 08:57:00,
2013-12-26 03:02:00,24.5,19.2,30.17,SE,135,2.0,7.0,80,0.00,,,0.00,Weather View 32 v70,2013-12-26 09:02:00,
2013-12-26 03:07:00,24.6,19.0,30.17,SE,135,3.0,7.0,79,0.00,,,0.00,Weather View 32 v70,2013-12-26 09:07:00,
2013-12-26 03:12:00,24.7,19.1,30.17,SE,135,4.0,7.0,79,0.00,,,0.00,Weather View 32 v70,2013-12-26 09:12:00,
2013-12-26 03:17:00,24.8,19.2,30.17,ESE,112,4.0,7.0,79,0.00,,,0.00,Weather View 32 v70,2013-12-26 09:17:00,
2013-12-26 03:22:00,24.8,18.9,30.16,SE,135,3.0,7.0,78,0.00,,,0.00,Weather View 32 v70,2013-12-26 09:22:00,
2013-12-26 03:27:00,24.8,18.9,30.16,SE,135,2.0,7.0,78,0.00,,,0.00,Weather View 32 v70,2013-12-26 09:27:00,
2013-12-26 03:32:00,24.9,19.0,30.16,SE,135,2.0,7.0,78,0.00,,,0.00,Weather View 32 v70,2013-12-26 09:32:00,
2013-12-26 03:37:00,24.9,19.0,30.16,SSE,157,2.0,7.0,78,0.00,,,0.00,Weather View 32 v70,2013-12-26 09:37:00,
2013-12-26 03:42:00,24.8,18.9,30.16,ESE,112,2.0,7.0,78,0.00,,,0.00,Weather View 32 v70,2013-12-26 09:42:00,
2013-12-26 03:47:00,24.5,18.6,30.16,SE,135,1.0,7.0,78,0.00,,,0.00,Weather View 32 v70,2013-12-26 09:47:00,
2013-12-26 03:52:00,24.4,18.5,30.16,SE,135,1.0,7.0,78,0.00,,,0.00,Weather View 32 v70,2013-12-26 09:52:00,
2013-12-26 03:57:00,24.2,18.3,30.16,ESE,112,2.0,7.0,78,0.00,,,0.00,Weather View 32 v70,2013-12-26 09:57:00,
2013-12-26 04:02:00,24.2,18.3,30.15,ESE,112,4.0,7.0,78,0.00,,,0.00,Weather View 32 v70,2013-12-26 10:02:00,
2013-12-26 04:07:00,24.2,18.3,30.15,SE,135,3.0,7.0,78,0.00,,,0.00,Weather View 32 v70,2013-12-26 10:07:00,
2013-12-26 04:12:00,24.1,18.5,30.15,ESE,112,2.0,7.0,79,0.00,,,0.00,Weather View 32 v70,2013-12-26 10:12:00,
2013-12-26 04:17:00,24.1,18.5,30.15,East,90,3.0,7.0,79,0.00,,,0.00,Weather View 32 v70,2013-12-26 10:17:00,
2013-12-26 04:22:00,24.1,18.5,30.14,East,90,2.0,6.0,79,0.00,,,0.00,Weather View 32 v70,2013-12-26 10:22:00,
2013-12-26 04:27:00,24.0,18.7,30.14,ESE,112,1.0,6.0,80,0.00,,,0.00,Weather View 32 v70,2013-12-26 10:27:00,
2013-12-26 04:32:00,24.0,18.7,30.14,ESE,112,2.0,6.0,80,0.00,,,0.00,Weather View 32 v70,2013-12-26 10:32:00,
2013-12-26 04:37:00,24.0,18.7,30.14,ESE,112,2.0,6.0,80,0.00,,,0.00,Weather View 32 v70,2013-12-26 10:37:00,
2013-12-26 04:42:00,24.1,18.8,30.14,East,90,1.0,6.0,80,0.00,,,0.00,Weather View 32 v70,2013-12-26 10:42:00,
2013-12-26 04:47:00,24.2,18.9,30.14,ESE,112,3.0,6.0,80,0.00,,,0.00,Weather View 32 v70,2013-12-26 10:47:00,
2013-12-26 04:52:00,24.2,18.6,30.14,SE,135,2.0,6.0,79,0.00,,,0.00,Weather View 32 v70,2013-12-26 10:52:00,
2013-12-26 04:57:00,24.2,18.9,30.14,ESE,112,2.0,6.0,80,0.00,,,0.00,Weather View 32 v70,2013-12-26 10:57:00,
2013-12-26 05:02:00,24.4,18.8,30.13,ESE,112,2.0,6.0,79,0.00,,,0.00,Weather View 32 v70,2013-12-26 11:02:00,
2013-12-26 05:07:00,24.6,19.0,30.13,ESE,112,2.0,5.0,79,0.00,,,0.00,Weather View 32 v70,2013-12-26 11:07:00,
2013-12-26 05:12:00,24.8,18.9,30.13,ESE,112,2.0,5.0,78,0.00,,,0.00,Weather View 32 v70,2013-12-26 11:12:00,
2013-12-26 05:17:00,24.9,19.0,30.12,ESE,112,2.0,5.0,78,0.00,,,0.00,Weather View 32 v70,2013-12-26 11:17:00,
2013-12-26 05:22:00,24.9,19.0,30.13,SE,135,2.0,5.0,78,0.00,,,0.00,Weather View 32 v70,2013-12-26 11:22:00,
2013-12-26 05:27:00,25.0,19.4,30.13,SE,135,2.0,5.0,79,0.00,,,0.00,Weather View 32 v70,2013-12-26 11:27:00,
2013-12-26 05:32:00,25.1,19.2,30.13,ESE,112,2.0,5.0,78,0.00,,,0.00,Weather View 32 v70,2013-12-26 11:32:00,
2013-12-26 05:37:00,25.1,19.2,30.13,ESE,112,3.0,5.0,78,0.00,,,0.00,Weather View 32 v70,2013-12-26 11:37:00,
2013-12-26 05:42:00,25.1,19.2,30.13,ESE,112,2.0,5.0,78,0.00,,,0.00,Weather View 32 v70,2013-12-26 11:42:00,
2013-12-26 05:47:00,25.1,19.2,30.13,ESE,112,1.0,5.0,78,0.00,,,0.00,Weather View 32 v70,2013-12-26 11:47:00,
2013-12-26 05:52:00,25.2,19.3,30.13,ESE,112,1.0,5.0,78,0.00,,,0.00,Weather View 32 v70,2013-12-26 11:52:00,
2013-12-26 05:57:00,25.2,19.3,30.13,ESE,112,2.0,5.0,78,0.00,,,0.00,Weather View 32 v70,2013-12-26 11:57:00,
2013-12-26 06:02:00,25.3,19.4,30.13,ESE,112,2.0,5.0,78,0.00,,,0.00,Weather View 32 v70,2013-12-26 12:02:00,
2013-12-26 06:07:00,25.4,19.5,30.12,SE,135,2.0,5.0,78,0.00,,,0.00,Weather View 32 v70,2013-12-26 12:07:00,
2013-12-26 06:12:00,25.4,19.5,30.12,SE,135,2.0,4.0,78,0.00,,,0.00,Weather View 32 v70,2013-12-26 12:12:00,
2013-12-26 06:17:00,25.3,19.4,30.12,SE,135,1.0,4.0,78,0.00,,,0.00,Weather View 32 v70,2013-12-26 12:17:00,
2013-12-26 06:22:00,25.2,19.6,30.12,SE,135,2.0,4.0,79,0.00,,,0.00,Weather View 32 v70,2013-12-26 12:22:00,
2013-12-26 06:27:00,25.1,19.5,30.13,SE,135,2.0,5.0,79,0.00,,,0.00,Weather View 32 v70,2013-12-26 12:27:00,
2013-12-26 06:32:00,25.0,19.4,30.12,SE,135,0.0,5.0,79,0.00,,,0.00,Weather View 32 v70,2013-12-26 12:32:00,
2013-12-26 06:37:00,24.9,19.3,30.13,South,180,0.0,5.0,79,0.00,,,0.00,Weather View 32 v70,2013-12-26 12:37:00,
2013-12-26 06:42:00,24.9,19.3,30.13,SE,135,2.0,5.0,79,0.00,,,0.00,Weather View 32 v70,2013-12-26 12:42:00,
2013-12-26 06:47:00,24.8,19.2,30.12,SE,135,2.0,5.0,79,0.00,,,0.00,Weather View 32 v70,2013-12-26 12:47:00,
2013-12-26 06:53:00,24.7,19.4,30.13,SE,135,1.0,5.0,80,0.00,,,0.00,Weather View 32 v70,2013-12-26 12:53:00,
2013-12-26 06:58:00,24.6,19.3,30.13,SE,135,1.0,5.0,80,0.00,,,0.00,Weather View 32 v70,2013-12-26 12:58:00,
2013-12-26 07:00:00,24.5,19.2,30.13,SE,135,1.0,5.0,80,0.00,,,0.00,Weather View 32 v70,2013-12-26 13:00:00,
2013-12-26 07:05:00,24.4,19.1,30.13,SE,135,2.0,5.0,80,0.00,,,0.00,Weather View 32 v70,2013-12-26 13:05:00,
2013-12-26 07:10:00,24.4,19.1,30.13,ESE,112,2.0,5.0,80,0.00,,,0.00,Weather View 32 v70,2013-12-26 13:10:00,
2013-12-26 07:15:00,24.3,19.0,30.13,ESE,112,2.0,5.0,80,0.00,,,0.00,Weather View 32 v70,2013-12-26 13:15:00,
2013-12-26 07:20:00,24.2,18.9,30.13,ESE,112,1.0,5.0,80,0.00,,,0.00,Weather View 32 v70,2013-12-26 13:20:00,
2013-12-26 07:25:00,24.0,18.7,30.13,ESE,112,2.0,4.0,80,0.00,,,0.00,Weather View 32 v70,2013-12-26 13:25:00,
2013-12-26 07:30:00,23.9,18.6,30.13,ESE,112,1.0,4.0,80,0.00,,,0.00,Weather View 32 v70,2013-12-26 13:30:00,
2013-12-26 07:35:00,23.8,18.8,30.13,ESE,112,0.0,4.0,81,0.00,,,0.00,Weather View 32 v70,2013-12-26 13:35:00,
2013-12-26 07:40:00,23.6,18.6,30.12,ESE,112,2.0,4.0,81,0.00,,,0.00,Weather View 32 v70,2013-12-26 13:40:00,
2013-12-26 07:45:00,23.5,18.8,30.12,SE,135,2.0,4.0,82,0.00,,,0.00,Weather View 32 v70,2013-12-26 13:45:00,
2013-12-26 07:50:00,23.5,18.8,30.12,SE,135,2.0,4.0,82,0.00,,,0.00,Weather View 32 v70,2013-12-26 13:50:00,
2013-12-26 07:55:00,23.6,18.9,30.12,SE,135,2.0,4.0,82,0.00,,,0.00,Weather View 32 v70,2013-12-26 13:55:00,
2013-12-26 08:00:00,23.6,18.9,30.12,SE,135,0.0,4.0,82,0.00,,,0.00,Weather View 32 v70,2013-12-26 14:00:00,
2013-12-26 08:05:00,23.6,19.2,30.13,SE,135,0.0,4.0,83,0.00,,,0.00,Weather View 32 v70,2013-12-26 14:05:00,
2013-12-26 08:10:00,23.5,19.4,30.13,SE,135,1.0,4.0,84,0.00,,,0.00,Weather View 32 v70,2013-12-26 14:10:00,
2013-12-26 08:15:00,23.5,19.4,30.13,South,180,1.0,4.0,84,0.00,,,0.00,Weather View 32 v70,2013-12-26 14:15:00,
2013-12-26 08:20:00,23.5,19.1,30.13,SE,135,1.0,4.0,83,0.00,,,0.00,Weather View 32 v70,2013-12-26 14:20:00,
2013-12-26 08:25:00,23.7,19.3,30.13,ESE,112,4.0,5.0,83,0.00,,,0.00,Weather View 32 v70,2013-12-26 14:25:00,
2013-12-26 08:30:00,23.7,19.6,30.13,SE,135,2.0,5.0,84,0.00,,,0.00,Weather View 32 v70,2013-12-26 14:30:00,
2013-12-26 08:35:00,23.8,19.7,30.13,ESE,112,2.0,5.0,84,0.00,,,0.00,Weather View 32 v70,2013-12-26 14:35:00,
2013-12-26 08:40:00,23.9,19.5,30.14,SE,135,2.0,5.0,83,0.00,,,0.00,Weather View 32 v70,2013-12-26 14:40:00,
2013-12-26 08:45:00,23.9,19.5,30.14,SE,135,1.0,5.0,83,0.00,,,0.00,Weather View 32 v70,2013-12-26 14:45:00,
2013-12-26 08:50:00,23.9,19.5,30.14,SE,135,2.0,5.0,83,0.00,,,0.00,Weather View 32 v70,2013-12-26 14:50:00,
2013-12-26 08:55:00,23.9,19.5,30.14,SE,135,2.0,5.0,83,0.00,,,0.00,Weather View 32 v70,2013-12-26 14:55:00,
2013-12-26 09:00:00,24.0,19.6,30.14,SE,135,2.0,5.0,83,0.00,,,0.00,Weather View 32 v70,2013-12-26 15:00:00,
2013-12-26 09:05:00,24.1,19.7,30.15,SE,135,1.0,5.0,83,0.00,,,0.00,Weather View 32 v70,2013-12-26 15:05:00,
2013-12-26 09:10:00,24.2,19.8,30.15,SE,135,1.0,5.0,83,0.00,,,0.00,Weather View 32 v70,2013-12-26 15:10:00,
2013-12-26 09:15:00,24.3,19.9,30.15,ESE,112,0.0,5.0,83,0.00,,,0.00,Weather View 32 v70,2013-12-26 15:15:00,
2013-12-26 09:20:00,24.4,20.0,30.15,ESE,112,0.0,5.0,83,0.00,,,0.00,Weather View 32 v70,2013-12-26 15:20:00,
2013-12-26 09:25:00,24.4,20.0,30.15,ESE,112,0.0,5.0,83,0.00,,,0.00,Weather View 32 v70,2013-12-26 15:25:00,
2013-12-26 09:30:00,24.4,20.0,30.15,ESE,112,1.0,5.0,83,0.00,,,0.00,Weather View 32 v70,2013-12-26 15:30:00,
2013-12-26 09:35:00,24.6,20.2,30.15,ESE,112,2.0,5.0,83,0.00,,,0.00,Weather View 32 v70,2013-12-26 15:35:00,
2013-12-26 09:40:00,25.3,21.4,30.15,South,180,0.0,5.0,85,0.00,,,0.00,Weather View 32 v70,2013-12-26 15:40:00,
2013-12-26 09:45:00,26.5,21.2,30.16,South,180,1.0,4.0,80,0.00,,,0.00,Weather View 32 v70,2013-12-26 15:45:00,
2013-12-26 09:50:00,26.9,21.3,30.14,SE,135,1.0,3.0,79,0.00,,,0.00,Weather View 32 v70,2013-12-26 15:50:00,
2013-12-26 09:55:00,27.2,21.6,30.14,SE,135,2.0,3.0,79,0.00,,,0.00,Weather View 32 v70,2013-12-26 15:55:00,
2013-12-26 10:00:00,27.7,21.7,30.15,SSE,157,0.0,3.0,78,0.00,,,0.00,Weather View 32 v70,2013-12-26 16:00:00,
2013-12-26 10:05:00,28.3,21.7,30.16,South,180,2.0,3.0,76,0.00,,,0.00,Weather View 32 v70,2013-12-26 16:05:00,
2013-12-26 10:10:00,28.3,21.7,30.16,South,180,2.0,3.0,76,0.00,,,0.00,Weather View 32 v70,2013-12-26 16:10:00,
2013-12-26 10:15:00,28.7,21.8,30.16,South,180,1.0,3.0,75,0.00,,,0.00,Weather View 32 v70,2013-12-26 16:15:00,
2013-12-26 10:20:00,29.1,22.2,30.16,SSW,202,1.0,3.0,75,0.00,,,0.00,Weather View 32 v70,2013-12-26 16:20:00,
2013-12-26 10:25:00,29.5,22.6,30.16,SW,225,1.0,3.0,75,0.00,,,0.00,Weather View 32 v70,2013-12-26 16:25:00,
2013-12-26 10:30:00,29.9,22.3,30.16,South,180,0.0,3.0,73,0.00,,,0.00,Weather View 32 v70,2013-12-26 16:30:00,
2013-12-26 10:35:00,30.9,22.9,30.16,South,180,0.0,3.0,72,0.00,,,0.00,Weather View 32 v70,2013-12-26 16:35:00,
2013-12-26 10:40:00,31.9,23.9,30.16,South,180,0.0,3.0,72,0.00,,,0.00,Weather View 32 v70,2013-12-26 16:40:00,
2013-12-26 10:45:00,32.7,23.6,30.16,WSW,247,1.0,3.0,69,0.00,,,0.00,Weather View 32 v70,2013-12-26 16:45:00,
2013-12-26 10:50:00,33.0,23.6,30.17,WSW,247,0.0,3.0,68,0.00,,,0.00,Weather View 32 v70,2013-12-26 16:50:00,
2013-12-26 10:55:00,33.8,24.7,30.16,WSW,247,1.0,3.0,69,0.00,,,0.00,Weather View 32 v70,2013-12-26 16:55:00,
2013-12-26 11:00:00,34.7,24.1,30.16,NW,315,0.0,3.0,65,0.00,,,0.00,Weather View 32 v70,2013-12-26 17:00:00,
2013-12-26 11:05:00,35.7,23.9,30.16,NW,315,1.0,3.0,62,0.00,,,0.00,Weather View 32 v70,2013-12-26 17:05:00,
2013-12-26 11:10:00,36.3,24.5,30.16,NW,315,0.0,3.0,62,0.00,,,0.00,Weather View 32 v70,2013-12-26 17:10:00,
2013-12-26 11:15:00,36.9,24.7,30.16,NW,315,0.0,3.0,61,0.00,,,0.00,Weather View 32 v70,2013-12-26 17:15:00,
2013-12-26 11:20:00,37.9,24.8,30.16,NW,315,0.0,3.0,59,0.00,,,0.00,Weather View 32 v70,2013-12-26 17:20:00,
2013-12-26 11:25:00,38.4,24.9,30.16,South,180,1.0,2.0,58,0.00,,,0.00,Weather View 32 v70,2013-12-26 17:25:00,
2013-12-26 11:30:00,38.4,24.9,30.16,SW,225,0.0,2.0,58,0.00,,,0.00,Weather View 32 v70,2013-12-26 17:30:00,
2013-12-26 11:35:00,38.2,24.7,30.16,NW,315,0.0,2.0,58,0.00,,,0.00,Weather View 32 v70,2013-12-26 17:35:00,
2013-12-26 11:40:00,38.3,24.8,30.16,NW,315,2.0,2.0,58,0.00,,,0.00,Weather View 32 v70,2013-12-26 17:40:00,
2013-12-26 11:45:00,38.5,24.6,30.16,SW,225,2.0,2.0,57,0.00,,,0.00,Weather View 32 v70,2013-12-26 17:45:00,
2013-12-26 11:50:00,38.5,24.6,30.16,West,270,2.0,2.0,57,0.00,,,0.00,Weather View 32 v70,2013-12-26 17:50:00,
2013-12-26 11:55:00,38.9,25.4,30.16,WNW,292,1.0,2.0,58,0.00,,,0.00,Weather View 32 v70,2013-12-26 17:55:00,
2013-12-26 12:00:00,39.4,24.6,30.16,NW,315,2.0,2.0,55,0.00,,,0.00,Weather View 32 v70,2013-12-26 18:00:00,
2013-12-26 12:05:00,39.2,24.8,30.16,West,270,2.0,4.0,56,0.00,,,0.00,Weather View 32 v70,2013-12-26 18:05:00,
2013-12-26 12:10:00,39.2,24.8,30.16,NW,315,6.0,6.0,56,0.00,,,0.00,Weather View 32 v70,2013-12-26 18:10:00,
2013-12-26 12:15:00,39.1,24.7,30.16,West,270,1.0,6.0,56,0.00,,,0.00,Weather View 32 v70,2013-12-26 18:15:00,
2013-12-26 12:20:00,39.2,24.8,30.16,WNW,292,5.0,6.0,56,0.00,,,0.00,Weather View 32 v70,2013-12-26 18:20:00,
2013-12-26 12:25:00,39.4,25.0,30.16,WNW,292,2.0,6.0,56,0.00,,,0.00,Weather View 32 v70,2013-12-26 18:25:00,
2013-12-26 12:30:00,39.6,24.7,30.15,WNW,292,2.0,6.0,55,0.00,,,0.00,Weather View 32 v70,2013-12-26 18:30:00,
2013-12-26 12:35:00,39.8,24.5,30.15,West,270,3.0,6.0,54,0.00,,,0.00,Weather View 32 v70,2013-12-26 18:35:00,
2013-12-26 12:40:00,40.3,25.0,30.15,West,270,5.0,7.0,54,0.00,,,0.00,Weather View 32 v70,2013-12-26 18:40:00,
2013-12-26 12:45:00,40.5,25.1,30.14,SW,225,2.0,8.0,54,0.00,,,0.00,Weather View 32 v70,2013-12-26 18:45:00,
2013-12-26 12:50:00,40.9,25.5,30.14,WSW,247,1.0,8.0,54,0.00,,,0.00,Weather View 32 v70,2013-12-26 18:50:00,
2013-12-26 12:55:00,41.4,25.5,30.14,WSW,247,2.0,8.0,53,0.00,,,0.00,Weather View 32 v70,2013-12-26 18:55:00,
2013-12-26 13:00:00,41.8,25.9,30.14,West,270,3.0,8.0,53,0.00,,,0.00,Weather View 32 v70,2013-12-26 19:00:00,
2013-12-26 13:05:00,42.1,25.7,30.14,WSW,247,3.0,8.0,52,0.00,,,0.00,Weather View 32 v70,2013-12-26 19:05:00,
2013-12-26 13:10:00,42.7,25.3,30.14,West,270,2.0,8.0,50,0.00,,,0.00,Weather View 32 v70,2013-12-26 19:10:00,
2013-12-26 13:15:00,42.9,25.5,30.14,WNW,292,4.0,8.0,50,0.00,,,0.00,Weather View 32 v70,2013-12-26 19:15:00,
2013-12-26 13:20:00,43.1,25.2,30.14,West,270,4.0,9.0,49,0.00,,,0.00,Weather View 32 v70,2013-12-26 19:20:00,
2013-12-26 13:25:00,43.5,25.1,30.14,West,270,4.0,9.0,48,0.00,,,0.00,Weather View 32 v70,2013-12-26 19:25:00,
2013-12-26 13:30:00,43.8,24.9,30.14,West,270,4.0,11.0,47,0.00,,,0.00,Weather View 32 v70,2013-12-26 19:30:00,
2013-12-26 13:35:00,43.7,24.2,30.14,West,270,6.0,11.0,46,0.00,,,0.00,Weather View 32 v70,2013-12-26 19:35:00,
2013-12-26 13:40:00,43.8,24.9,30.14,West,270,4.0,11.0,47,0.00,,,0.00,Weather View 32 v70,2013-12-26 19:40:00,
2013-12-26 13:45:00,43.9,24.9,30.14,West,270,4.0,11.0,47,0.00,,,0.00,Weather View 32 v70,2013-12-26 19:45:00,
2013-12-26 13:50:00,44.1,24.6,30.14,West,270,5.0,11.0,46,0.00,,,0.00,Weather View 32 v70,2013-12-26 19:50:00,
2013-12-26 13:55:00,44.3,24.3,30.14,WNW,292,3.0,11.0,45,0.00,,,0.00,Weather View 32 v70,2013-12-26 19:55:00,
2013-12-26 14:00:00,44.5,23.9,30.14,WNW,292,6.0,11.0,44,0.00,,,0.00,Weather View 32 v70,2013-12-26 20:00:00,
2013-12-26 14:05:00,44.7,24.6,30.14,West,270,5.0,11.0,45,0.00,,,0.00,Weather View 32 v70,2013-12-26 20:05:00,
2013-12-26 14:10:00,44.7,24.6,30.14,WNW,292,3.0,11.0,45,0.00,,,0.00,Weather View 32 v70,2013-12-26 20:10:00,
2013-12-26 14:16:00,44.8,24.2,30.14,WSW,247,2.0,11.0,44,0.00,,,0.00,Weather View 32 v70,2013-12-26 20:16:00,
2013-12-26 14:21:00,44.9,23.7,30.14,West,270,6.0,11.0,43,0.00,,,0.00,Weather View 32 v70,2013-12-26 20:21:00,
2013-12-26 14:26:00,45.2,24.0,30.14,WSW,247,8.0,11.0,43,0.00,,,0.00,Weather View 32 v70,2013-12-26 20:26:00,
2013-12-26 14:31:00,45.4,23.0,30.14,WNW,292,3.0,11.0,41,0.00,,,0.00,Weather View 32 v70,2013-12-26 20:31:00,
2013-12-26 14:36:00,45.6,23.8,30.14,WNW,292,2.0,11.0,42,0.00,,,0.00,Weather View 32 v70,2013-12-26 20:36:00,
2013-12-26 14:41:00,45.8,22.8,30.14,West,270,3.0,11.0,40,0.00,,,0.00,Weather View 32 v70,2013-12-26 20:41:00,
2013-12-26 14:46:00,46.2,23.2,30.14,WSW,247,10.0,11.0,40,0.00,,,0.00,Weather View 32 v70,2013-12-26 20:46:00,
2013-12-26 14:51:00,46.4,22.7,30.15,WSW,247,9.0,11.0,39,0.00,,,0.00,Weather View 32 v70,2013-12-26 20:51:00,
2013-12-26 14:56:00,46.5,22.8,30.15,WSW,247,5.0,11.0,39,0.00,,,0.00,Weather View 32 v70,2013-12-26 20:56:00,
2013-12-26 15:01:00,46.7,22.4,30.15,WNW,292,6.0,11.0,38,0.00,,,0.00,Weather View 32 v70,2013-12-26 21:01:00,
2013-12-26 15:06:00,46.7,23.0,30.15,West,270,8.0,11.0,39,0.00,,,0.00,Weather View 32 v70,2013-12-26 21:06:00,
2013-12-26 15:11:00,46.8,23.1,30.15,WNW,292,6.0,11.0,39,0.00,,,0.00,Weather View 32 v70,2013-12-26 21:11:00,
2013-12-26 15:16:00,46.8,22.5,30.15,West,270,6.0,11.0,38,0.00,,,0.00,Weather View 32 v70,2013-12-26 21:16:00,
2013-12-26 15:21:00,46.9,22.6,30.16,West,270,4.0,12.0,38,0.00,,,0.00,Weather View 32 v70,2013-12-26 21:21:00,
2013-12-26 15:26:00,47.0,22.0,30.16,West,270,5.0,12.0,37,0.00,,,0.00,Weather View 32 v70,2013-12-26 21:26:00,
2013-12-26 15:31:00,46.9,22.6,30.16,West,270,6.0,12.0,38,0.00,,,0.00,Weather View 32 v70,2013-12-26 21:31:00,
2013-12-26 15:36:00,46.9,23.2,30.16,West,270,6.0,12.0,39,0.00,,,0.00,Weather View 32 v70,2013-12-26 21:36:00,
2013-12-26 15:41:00,46.8,22.5,30.16,West,270,8.0,12.0,38,0.00,,,0.00,Weather View 32 v70,2013-12-26 21:41:00,
2013-12-26 15:46:00,46.7,22.4,30.17,West,270,7.0,12.0,38,0.00,,,0.00,Weather View 32 v70,2013-12-26 21:46:00,
2013-12-26 15:51:00,46.4,22.7,30.17,WNW,292,6.0,12.0,39,0.00,,,0.00,Weather View 32 v70,2013-12-26 21:51:00,
2013-12-26 15:56:00,46.3,23.3,30.18,West,270,5.0,12.0,40,0.00,,,0.00,Weather View 32 v70,2013-12-26 21:56:00,
2013-12-26 16:01:00,46.2,23.8,30.18,WNW,292,6.0,12.0,41,0.00,,,0.00,Weather View 32 v70,2013-12-26 22:01:00,
2013-12-26 16:06:00,45.9,23.5,30.18,WNW,292,4.0,12.0,41,0.00,,,0.00,Weather View 32 v70,2013-12-26 22:06:00,
2013-12-26 16:11:00,45.6,24.4,30.18,NW,315,6.0,12.0,43,0.00,,,0.00,Weather View 32 v70,2013-12-26 22:11:00,
2013-12-26 16:16:00,45.2,24.5,30.19,NW,315,3.0,12.0,44,0.00,,,0.00,Weather View 32 v70,2013-12-26 22:16:00,
2013-12-26 16:21:00,44.8,24.7,30.19,West,270,2.0,12.0,45,0.00,,,0.00,Weather View 32 v70,2013-12-26 22:21:00,
2013-12-26 16:26:00,44.6,24.5,30.19,NW,315,6.0,12.0,45,0.00,,,0.00,Weather View 32 v70,2013-12-26 22:26:00,
2013-12-26 16:31:00,44.1,25.1,30.19,NW,315,9.0,12.0,47,0.00,,,0.00,Weather View 32 v70,2013-12-26 22:31:00,
2013-12-26 16:36:00,43.7,24.8,30.19,NW,315,6.0,12.0,47,0.00,,,0.00,Weather View 32 v70,2013-12-26 22:36:00,
2013-12-26 16:41:00,42.7,25.3,30.19,WNW,292,4.0,12.0,50,0.00,,,0.00,Weather View 32 v70,2013-12-26 22:41:00,
2013-12-26 16:46:00,42.0,25.2,30.20,WNW,292,5.0,12.0,51,0.00,,,0.00,Weather View 32 v70,2013-12-26 22:46:00,
2013-12-26 16:51:00,41.6,25.3,30.20,WNW,292,6.0,12.0,52,0.00,,,0.00,Weather View 32 v70,2013-12-26 22:51:00,
2013-12-26 16:56:00,41.4,25.1,30.20,West,270,4.0,12.0,52,0.00,,,0.00,Weather View 32 v70,2013-12-26 22:56:00,
2013-12-26 17:01:00,41.2,25.3,30.20,West,270,3.0,12.0,53,0.00,,,0.00,Weather View 32 v70,2013-12-26 23:01:00,
2013-12-26 17:06:00,40.8,25.4,30.20,NW,315,2.0,12.0,54,0.00,,,0.00,Weather View 32 v70,2013-12-26 23:06:00,
2013-12-26 17:11:00,40.4,25.0,30.20,WNW,292,4.0,12.0,54,0.00,,,0.00,Weather View 32 v70,2013-12-26 23:11:00,
2013-12-26 17:16:00,39.8,24.9,30.20,NW,315,3.0,12.0,55,0.00,,,0.00,Weather View 32 v70,2013-12-26 23:16:00,
2013-12-26 17:21:00,39.4,25.0,30.21,WNW,292,1.0,12.0,56,0.00,,,0.00,Weather View 32 v70,2013-12-26 23:21:00,
2013-12-26 17:26:00,39.1,24.7,30.21,NW,315,2.0,12.0,56,0.00,,,0.00,Weather View 32 v70,2013-12-26 23:26:00,
2013-12-26 17:31:00,38.6,24.7,30.21,NW,315,2.0,12.0,57,0.00,,,0.00,Weather View 32 v70,2013-12-26 23:31:00,
2013-12-26 17:36:00,38.3,24.0,30.21,WNW,292,4.0,9.0,56,0.00,,,0.00,Weather View 32 v70,2013-12-26 23:36:00,
2013-12-26 17:41:00,38.1,24.2,30.21,NW,315,4.0,7.0,57,0.00,,,0.00,Weather View 32 v70,2013-12-26 23:41:00,
2013-12-26 17:42:00,38.1,24.2,30.21,WNW,292,3.0,7.0,57,0.00,,,0.00,Weather View 32 v70,2013-12-26 23:42:00,
2013-12-26 17:47:00,37.8,23.9,30.21,NW,315,4.0,7.0,57,0.00,,,0.00,Weather View 32 v70,2013-12-26 23:47:00,
2013-12-26 17:50:00,37.6,23.7,30.21,NW,315,4.0,7.0,57,0.00,,,0.00,Weather View 32 v70,2013-12-26 23:50:00,
2013-12-26 17:55:00,37.2,23.8,30.21,NW,315,3.0,6.0,58,0.00,,,0.00,Weather View 32 v70,2013-12-26 23:55:00,
2013-12-26 18:00:00,36.8,23.8,30.22,NW,315,1.0,6.0,59,0.00,,,0.00,Weather View 32 v70,2013-12-27 00:00:00,
2013-12-26 18:05:00,36.3,23.3,30.21,NW,315,1.0,6.0,59,0.00,,,0.00,Weather View 32 v70,2013-12-27 00:05:00,
2013-12-26 18:10:00,35.8,23.3,30.22,NW,315,1.0,6.0,60,0.00,,,0.00,Weather View 32 v70,2013-12-27 00:10:00,
2013-12-26 18:15:00,35.1,23.4,30.22,NW,315,1.0,6.0,62,0.00,,,0.00,Weather View 32 v70,2013-12-27 00:15:00,
2013-12-26 18:20:00,34.5,23.2,30.22,NW,315,0.0,6.0,63,0.00,,,0.00,Weather View 32 v70,2013-12-27 00:20:00,
2013-12-26 18:25:00,33.9,23.0,30.22,NW,315,0.0,6.0,64,0.00,,,0.00,Weather View 32 v70,2013-12-27 00:25:00,
2013-12-26 18:31:00,33.4,22.9,30.22,NW,315,0.0,6.0,65,0.00,,,0.00,Weather View 32 v70,2013-12-27 00:31:00,
2013-12-26 18:36:00,32.5,22.8,30.22,NW,315,0.0,6.0,67,0.00,,,0.00,Weather View 32 v70,2013-12-27 00:36:00,
2013-12-26 18:41:00,31.9,22.5,30.22,NW,315,2.0,6.0,68,0.00,,,0.00,Weather View 32 v70,2013-12-27 00:41:00,
2013-12-26 18:46:00,31.4,22.4,30.22,NW,315,3.0,5.0,69,0.00,,,0.00,Weather View 32 v70,2013-12-27 00:46:00,
2013-12-26 18:51:00,30.8,22.2,30.23,NW,315,2.0,4.0,70,0.00,,,0.00,Weather View 32 v70,2013-12-27 00:51:00,
2013-12-26 18:56:00,30.1,22.2,30.23,NW,315,6.0,6.0,72,0.00,,,0.00,Weather View 32 v70,2013-12-27 00:56:00,
2013-12-26 19:01:00,30.8,22.8,30.23,NW,315,4.0,6.0,72,0.00,,,0.00,Weather View 32 v70,2013-12-27 01:01:00,
2013-12-26 19:06:00,31.2,23.2,30.23,NW,315,4.0,6.0,72,0.00,,,0.00,Weather View 32 v70,2013-12-27 01:06:00,
2013-12-26 19:11:00,31.9,23.6,30.24,West,270,4.0,6.0,71,0.00,,,0.00,Weather View 32 v70,2013-12-27 01:11:00,
2013-12-26 19:16:00,32.8,23.7,30.24,West,270,7.0,7.0,69,0.00,,,0.00,Weather View 32 v70,2013-12-27 01:16:00,
2013-12-26 19:21:00,33.6,24.2,30.24,West,270,2.0,8.0,68,0.00,,,0.00,Weather View 32 v70,2013-12-27 01:21:00,
2013-12-26 19:26:00,33.8,24.4,30.24,West,270,2.0,8.0,68,0.00,,,0.00,Weather View 32 v70,2013-12-27 01:26:00,
2013-12-26 19:31:00,33.7,24.6,30.24,West,270,4.0,9.0,69,0.00,,,0.00,Weather View 32 v70,2013-12-27 01:31:00,
2013-12-26 19:36:00,34.1,25.0,30.24,West,270,5.0,9.0,69,0.00,,,0.00,Weather View 32 v70,2013-12-27 01:36:00,
2013-12-26 19:41:00,34.1,25.0,30.24,West,270,6.0,9.0,69,0.00,,,0.00,Weather View 32 v70,2013-12-27 01:41:00,
2013-12-26 19:46:00,33.9,25.5,30.24,West,270,7.0,9.0,71,0.00,,,0.00,Weather View 32 v70,2013-12-27 01:46:00,
2013-12-26 19:51:00,33.9,25.5,30.24,West,270,4.0,9.0,71,0.00,,,0.00,Weather View 32 v70,2013-12-27 01:51:00,
2013-12-26 19:56:00,33.7,25.3,30.25,West,270,4.0,9.0,71,0.00,,,0.00,Weather View 32 v70,2013-12-27 01:56:00,
2013-12-26 20:01:00,33.4,25.3,30.24,West,270,4.0,9.0,72,0.00,,,0.00,Weather View 32 v70,2013-12-27 02:01:00,
2013-12-26 20:06:00,33.1,25.4,30.25,West,270,4.0,9.0,73,0.00,,,0.00,Weather View 32 v70,2013-12-27 02:06:00,
2013-12-26 20:11:00,32.9,25.5,30.25,NW,315,6.0,9.0,74,0.00,,,0.00,Weather View 32 v70,2013-12-27 02:11:00,
2013-12-26 20:16:00,32.3,24.9,30.25,NW,315,7.0,9.0,74,0.00,,,0.00,Weather View 32 v70,2013-12-27 02:16:00,
2013-12-26 20:21:00,31.9,24.9,30.25,NW,315,8.0,9.0,75,0.00,,,0.00,Weather View 32 v70,2013-12-27 02:21:00,
2013-12-26 20:26:00,31.8,25.1,30.25,NW,315,6.0,9.0,76,0.00,,,0.00,Weather View 32 v70,2013-12-27 02:26:00,
2013-12-26 20:31:00,31.3,24.9,30.25,NW,315,5.0,9.0,77,0.00,,,0.00,Weather View 32 v70,2013-12-27 02:31:00,
2013-12-26 20:36:00,31.2,25.1,30.25,NW,315,3.0,9.0,78,0.00,,,0.00,Weather View 32 v70,2013-12-27 02:36:00,
2013-12-26 20:41:00,31.2,25.1,30.26,NNW,337,3.0,9.0,78,0.00,,,0.00,Weather View 32 v70,2013-12-27 02:41:00,
2013-12-26 20:46:00,30.9,24.5,30.26,North,360,2.0,9.0,77,0.00,,,0.00,Weather View 32 v70,2013-12-27 02:46:00,
2013-12-26 20:51:00,29.5,22.2,30.25,NE,45,1.0,9.0,74,0.00,,,0.00,Weather View 32 v70,2013-12-27 02:51:00,
2013-12-26 20:56:00,27.8,21.5,30.26,ENE,67,1.0,9.0,77,0.00,,,0.00,Weather View 32 v70,2013-12-27 02:56:00,
2013-12-26 21:01:00,27.5,21.8,30.26,ENE,67,0.0,9.0,79,0.00,,,0.00,Weather View 32 v70,2013-12-27 03:01:00,
2013-12-26 21:06:00,27.2,21.8,30.26,ENE,67,2.0,9.0,80,0.00,,,0.00,Weather View 32 v70,2013-12-27 03:06:00,
2013-12-26 21:11:00,27.0,21.4,30.26,NE,45,2.0,9.0,79,0.00,,,0.00,Weather View 32 v70,2013-12-27 03:11:00,
2013-12-26 21:16:00,26.9,21.6,30.26,NE,45,2.0,9.0,80,0.00,,,0.00,Weather View 32 v70,2013-12-27 03:16:00,
2013-12-26 21:21:00,26.7,21.7,30.26,NE,45,0.0,9.0,81,0.00,,,0.00,Weather View 32 v70,2013-12-27 03:21:00,
2013-12-26 21:26:00,25.8,20.8,30.27,North,360,1.0,8.0,81,0.00,,,0.00,Weather View 32 v70,2013-12-27 03:26:00,
2013-12-26 21:31:00,25.1,20.9,30.27,North,360,2.0,7.0,84,0.00,,,0.00,Weather View 32 v70,2013-12-27 03:31:00,
2013-12-26 21:36:00,24.9,21.0,30.27,North,360,2.0,6.0,85,0.00,,,0.00,Weather View 32 v70,2013-12-27 03:36:00,
2013-12-26 21:41:00,25.2,21.9,30.26,North,360,1.0,4.0,87,0.00,,,0.00,Weather View 32 v70,2013-12-27 03:41:00,
2013-12-26 21:46:00,25.5,21.9,30.27,North,360,0.0,4.0,86,0.00,,,0.00,Weather View 32 v70,2013-12-27 03:46:00,
2013-12-26 21:51:00,25.3,21.7,30.27,North,360,0.0,3.0,86,0.00,,,0.00,Weather View 32 v70,2013-12-27 03:51:00,
2013-12-26 21:56:00,24.9,21.0,30.27,North,360,0.0,2.0,85,0.00,,,0.00,Weather View 32 v70,2013-12-27 03:56:00,
2013-12-26 22:01:00,24.3,21.0,30.27,North,360,0.0,2.0,87,0.00,,,0.00,Weather View 32 v70,2013-12-27 04:01:00,
2013-12-26 22:06:00,23.8,21.0,30.27,North,360,0.0,2.0,89,0.00,,,0.00,Weather View 32 v70,2013-12-27 04:06:00,
2013-12-26 22:11:00,23.4,20.6,30.27,North,360,0.0,2.0,89,0.00,,,0.00,Weather View 32 v70,2013-12-27 04:11:00,
2013-12-26 22:16:00,23.3,20.5,30.27,North,360,2.0,2.0,89,0.00,,,0.00,Weather View 32 v70,2013-12-27 04:16:00,
2013-12-26 22:21:00,23.1,20.9,30.27,North,360,0.0,2.0,91,0.00,,,0.00,Weather View 32 v70,2013-12-27 04:21:00,
2013-12-26 22:26:00,22.9,20.9,30.27,North,360,1.0,2.0,92,0.00,,,0.00,Weather View 32 v70,2013-12-27 04:26:00,
2013-12-26 22:31:00,22.8,20.8,30.27,North,360,0.0,2.0,92,0.00,,,0.00,Weather View 32 v70,2013-12-27 04:31:00,
2013-12-26 22:36:00,22.9,21.2,30.27,North,360,0.0,2.0,93,0.00,,,0.00,Weather View 32 v70,2013-12-27 04:36:00,
2013-12-26 22:41:00,22.9,21.2,30.27,North,360,0.0,2.0,93,0.00,,,0.00,Weather View 32 v70,2013-12-27 04:41:00,
2013-12-26 22:46:00,23.4,21.7,30.27,North,360,0.0,2.0,93,0.00,,,0.00,Weather View 32 v70,2013-12-27 04:46:00,
2013-12-26 22:51:00,23.9,22.2,30.27,North,360,0.0,2.0,93,0.00,,,0.00,Weather View 32 v70,2013-12-27 04:51:00,
2013-12-26 22:56:00,24.1,22.4,30.27,North,360,0.0,2.0,93,0.00,,,0.00,Weather View 32 v70,2013-12-27 04:56:00,
2013-12-26 23:01:00,24.5,22.8,30.27,North,360,0.0,2.0,93,0.00,,,0.00,Weather View 32 v70,2013-12-27 05:01:00,
2013-12-26 23:02:00,24.5,22.8,30.27,North,360,0.0,2.0,93,0.00,,,0.00,Weather View 32 v70,2013-12-27 05:02:00,
2013-12-26 23:07:00,24.3,22.6,30.27,North,360,0.0,2.0,93,0.00,,,0.00,Weather View 32 v70,2013-12-27 05:07:00,
2013-12-26 23:12:00,23.9,21.9,30.27,North,360,0.0,2.0,92,0.00,,,0.00,Weather View 32 v70,2013-12-27 05:12:00,
2013-12-26 23:17:00,23.4,21.4,30.27,North,360,0.0,2.0,92,0.00,,,0.00,Weather View 32 v70,2013-12-27 05:17:00,
2013-12-26 23:22:00,22.9,21.2,30.27,North,360,0.0,2.0,93,0.00,,,0.00,Weather View 32 v70,2013-12-27 05:22:00,
2013-12-26 23:27:00,22.6,20.9,30.27,North,360,0.0,1.0,93,0.00,,,0.00,Weather View 32 v70,2013-12-27 05:27:00,
2013-12-26 23:32:00,22.6,20.9,30.27,North,360,0.0,1.0,93,0.00,,,0.00,Weather View 32 v70,2013-12-27 05:32:00,
2013-12-26 23:37:00,22.3,20.6,30.27,North,360,0.0,0.0,93,0.00,,,0.00,Weather View 32 v70,2013-12-27 05:37:00,
2013-12-26 23:42:00,21.8,20.1,30.27,North,360,0.0,0.0,93,0.00,,,0.00,Weather View 32 v70,2013-12-27 05:42:00,
2013-12-26 23:47:00,21.3,19.6,30.27,North,360,0.0,0.0,93,0.00,,,0.00,Weather View 32 v70,2013-12-27 05:47:00,
2013-12-26 23:52:00,20.9,19.2,30.28,North,360,0.0,0.0,93,0.00,,,0.00,Weather View 32 v70,2013-12-27 05:52:00,
2013-12-26 23:57:00,20.6,18.9,30.28,North,360,0.0,0.0,93,0.00,,,0.00,Weather View 32 v70,2013-12-27 05:57:00,